Change the Weather History Date:

Tuesday, June 18, 2013

  Actual Average Record
Temperature  
Mean Temperature 64 °F -  
Max Temperature 72 °F 71 °F 78 °F (2006)
Min Temperature 55 °F 53 °F 41 °F (2004)
Growing Degree Days 14 (Base 50)    
Moisture  
Dew Point 53 °F    
Average Humidity 70    
Maximum Humidity 94    
Minimum Humidity 38    
Precipitation  
Precipitation 0.00 in 0.11 in - ()
Sea Level Pressure  
Sea Level Pressure 29.84 in    
Wind  
Wind Speed 7 mph ()    
Max Wind Speed 21 mph    
Max Gust Speed 31 mph    
Visibility 15.0 miles    
Events Rain    
Averages and records for this station are not official NWS values.
T = Trace of Precipitation, MM = Missing Value Source: Averaged Metar Reports

Daily Weather History Graph

Daily Weather History Graph

Search for Another Location

Airport or City:

Trip Planner

Search our weather history database for the weather conditions in past years. The results will help you decide how hot, cold, wet, or windy it might be!

Date:

Astronomy

Jun. 18, 2013 Rise Set
Actual Time 5:20 AM ADT 9:07 PM ADT
Civil Twilight 4:41 AM ADT 9:46 PM ADT
Nautical Twilight 3:48 AM ADT 10:39 PM ADT
Astronomical Twilight 2:33 AM ADT 11:54 PM ADT
Moon 3:33 PM ADT (6/18) 1:41 AM ADT (6/18)
Length of Visible Light 17h 05m
Length of Day
15h 47m
Waxing Gibbous, 70% of the Moon is Illuminated
Jun 18
Waxing Gibbous
Jun 23
Full
Jun 30
Last Quarter
Jul 8
New
Jul 16
First Quarter

Hourly Weather History & Observations

Time (ADT) Temp. Dew Point Humidity Pressure Visibility Wind Dir Wind Speed Gust Speed Precip Events Conditions
12:00 AM 59.0 °F 57.2 °F 94% 29.83 in 15.0 mi ESE 4.6 mph - N/A   Mostly Cloudy
1:00 AM 59.0 °F 57.2 °F 94% 29.82 in 15.0 mi SSE 4.6 mph - N/A   Mostly Cloudy
1:19 AM 59.0 °F 57.2 °F 94% 29.81 in 15.0 mi SE 4.6 mph - N/A Rain Light Rain Showers
2:00 AM 59.0 °F 57.2 °F 94% 29.81 in 15.0 mi South 3.5 mph - N/A Rain Light Rain Showers
3:00 AM 59 °F 57 °F 92% 29.80 in 15 mi South 5.8 mph - - Rain Light Rain Showers
3:00 AM 59.0 °F 57.2 °F 94% 29.80 in 15.0 mi South 4.6 mph - N/A Rain Light Rain Showers
4:00 AM 59.0 °F 55.4 °F 88% 29.79 in 15.0 mi South 8.1 mph - N/A   Overcast
5:00 AM 59.0 °F 55.4 °F 88% 29.80 in 15.0 mi South 6.9 mph - N/A   Mostly Cloudy
6:00 AM 59.0 °F 55.4 °F 88% 29.80 in 15.0 mi SW 9.2 mph - N/A   Mostly Cloudy
7:00 AM 60.8 °F 57.2 °F 88% 29.81 in 15.0 mi SW 9.2 mph - N/A   Partly Cloudy
8:00 AM 60.8 °F 57.2 °F 88% 29.82 in 15.0 mi SW 9.2 mph - N/A   Scattered Clouds
9:00 AM 63 °F 57 °F 75% 29.83 in 15 mi WSW 11.5 mph - -   Partly Cloudy
9:00 AM 62.6 °F 57.2 °F 82% 29.82 in 15.0 mi WSW 11.5 mph - N/A   Scattered Clouds
10:00 AM 66.2 °F 57.2 °F 73% 29.83 in 15.0 mi WSW 9.2 mph - N/A   Partly Cloudy
11:00 AM 68.0 °F 55.4 °F 64% 29.83 in 15.0 mi WSW 11.5 mph 18.4 mph N/A   Partly Cloudy
12:00 PM 69.8 °F 51.8 °F 53% 29.83 in 15.0 mi SW 15.0 mph - N/A   Partly Cloudy
1:00 PM 69.8 °F 50.0 °F 49% 29.83 in 15.0 mi WSW 16.1 mph 27.6 mph N/A   Scattered Clouds
2:00 PM 71.6 °F 50.0 °F 46% 29.82 in 15.0 mi WSW 20.7 mph 31.1 mph N/A   Scattered Clouds
3:00 PM 72 °F 52 °F 38% 29.82 in 15 mi West 12.7 mph - -   Partly Cloudy
3:00 PM 71.6 °F 51.8 °F 50% 29.82 in 15.0 mi West 11.5 mph 21.9 mph N/A   Scattered Clouds
4:00 PM 71.6 °F 51.8 °F 50% 29.83 in 15.0 mi West 12.7 mph 25.3 mph N/A   Scattered Clouds
5:00 PM 69.8 °F 50.0 °F 49% 29.84 in 15.0 mi West 15.0 mph - N/A   Mostly Cloudy
6:00 PM 68.0 °F 48.2 °F 49% 29.85 in 15.0 mi West 10.4 mph - N/A   Mostly Cloudy
7:00 PM 68.0 °F 50.0 °F 52% 29.86 in 15.0 mi West 11.5 mph - N/A   Mostly Cloudy
8:00 PM 64.4 °F 46.4 °F 52% 29.88 in 15.0 mi West 6.9 mph - N/A   Mostly Cloudy
9:00 PM 64 °F 49 °F 48% 29.90 in 15 mi West 5.8 mph - -   Mostly Cloudy
9:00 PM 64.4 °F 48.2 °F 56% 29.90 in 15.0 mi West 4.6 mph - N/A   Mostly Cloudy
10:00 PM 60.8 °F 50.0 °F 68% 29.92 in 15.0 mi WSW 6.9 mph - N/A   Mostly Cloudy
11:00 PM 55.4 °F 50.0 °F 82% 29.92 in 15.0 mi NW 3.5 mph - N/A   Mostly Cloudy